Location: Go�ngahuizen
(53.0821°N, 5.8849°E)
Time: 12:32:50
(UTC+00:00)

Cosmos 1833 Rocket - Pass Details

Date: 09 April 2020
Orbit: 834 x 838 km, 71.0° (Epoch: 24 May)

Event Time Altitude Azimuth Distance (km) Brightness Sun altitude
Exits shadow 20:39:09 30° 113° (ESE) 1,471 3.4 -18.2°
Maximum altitude 20:39:30 30° 106° (ESE) 1,464 3.5 -18.2°
Drops below altitude 10° 20:44:20 10° 47° (NE) 2,461 5.1 -18.7°
Sets 20:47:02 0° 37° (NE) 3,400 5.9 -19.0°
